User: anonymous   Login
Location: Lourdes
(43.1000°N, 0.0500°W)
Time: 03:43:44
(UTC+00:00)
Language:

DIWATA 2B (PO-101) - Orbit

View from above orbital plane
View from above orbital plane
View from above satellite
View from above satellite

Ground track
Ground track

The orbit data is extracted from the following two-line orbital elements,

1 43678U 18084H   21165.90465586  .00000105  00000-0  16172-4 0  9994
2 43678  97.9237 291.1705 0011232  63.6815 296.5573 14.91753008143058
Epoch (UTC): 14 June 2021 21:42:42
Eccentricity: 0.0011232
inclination: 97.9237°
perigee height: 584 km
apogee height: 600 km
right ascension of ascending node: 291.1705°
argument of perigee: 63.6815°
revolutions per day: 14.91753008
mean anomaly at epoch: 296.5573°
orbit number at epoch: 14305

The dashed part of the orbit path shows where the satellite is in the earth's shadow,  

DLR